User: anonymous   Login
Location: Arborea
(39.7744°N, 8.5819°E)
Time: 00:46:40
(UTC+00:00)
Language:

deb Ariane - Orbit

View from above orbital plane
View from above orbital plane
View from above satellite
View from above satellite

Ground track
Ground track

The orbit data is extracted from the following two-line orbital elements,

1 17543U 86019HX  22226.38714997  .00000226  00000-0  13865-3 0  9992
2 17543  98.6077 266.4698 0121347 163.8212 320.0517 14.11063923833979
Epoch (UTC): 14 August 2022 09:17:29
Eccentricity: 0.0121347
inclination: 98.6077°
perigee height: 768 km
apogee height: 943 km
right ascension of ascending node: 266.4698°
argument of perigee: 163.8212°
revolutions per day: 14.11063923
mean anomaly at epoch: 320.0517°
orbit number at epoch: 83397

The dashed part of the orbit path shows where the satellite is in the earth's shadow,  

DLR